This is the latest recevied weather packets stored in our database for station/object KJ7HSW. If no packets are shown the sender has not sent any weather packets the latest 10 day(s).
| Time | Temp. | Humidity | Pressure | Rain* | Wind** | Luminosity | Snow |
|---|---|---|---|---|---|---|---|
| 1777336076 | 14.44° C | 68% | 1015.9 hPa | 0 mm | - | 118 W/m² | - |
| 1777335773 | 14.44° C | 69% | 1015.8 hPa | 0 mm | - | 112 W/m² | - |
| 1777335470 | 14.44° C | 68% | 1015.8 hPa | 0 mm | - | 129 W/m² | - |
| 1777335167 | 14.44° C | 68% | 1015.8 hPa | 0 mm | - | 146 W/m² | - |
| 1777334865 | 14.44° C | 68% | 1016 hPa | 0 mm | - | 153 W/m² | - |
| 1777334562 | 13.89° C | 69% | 1015.8 hPa | 0 mm | - | 129 W/m² | - |
| 1777334259 | 13.89° C | 68% | 1015.7 hPa | 0 mm | - | 118 W/m² | - |
| 1777333958 | 13.89° C | 69% | 1015.9 hPa | 0 mm | - | 91 W/m² | - |
| 1777333656 | 13.89° C | 68% | 1015.8 hPa | 0 mm | - | 90 W/m² | - |
| 1777333352 | 14.44° C | 69% | 1015.8 hPa | 0 mm | - | 108 W/m² | - |
| 1777333051 | 14.44° C | 69% | 1015.9 hPa | 0 mm | - | 106 W/m² | - |
| 1777332748 | 14.44° C | 68% | 1015.9 hPa | 0 mm | - | 112 W/m² | - |
| 1777332445 | 14.44° C | 67% | 1015.7 hPa | 0 mm | - | 141 W/m² | - |
| 1777332141 | 14.44° C | 69% | 1015.7 hPa | 0 mm | - | 112 W/m² | - |
| 1777331838 | 13.89° C | 68% | 1015.8 hPa | 0 mm | - | 145 W/m² | - |
| 1777331535 | 14.44° C | 67% | 1015.7 hPa | 0 mm | - | 131 W/m² | - |
| 1777331233 | 14.44° C | 67% | 1015.8 hPa | 0 mm | - | 131 W/m² | - |
| 1777330930 | 14.44° C | 67% | 1015.8 hPa | 0 mm | - | 149 W/m² | - |
| 1777330626 | 14.44° C | 67% | 1016 hPa | 0 mm | - | 148 W/m² | - |
| 1777330323 | 14.44° C | 66% | 1015.9 hPa | 0 mm | - | 145 W/m² | - |
| 1777330021 | 14.44° C | 67% | 1016 hPa | 0 mm | - | 154 W/m² | - |
| 1777329715 | 14.44° C | 66% | 1015.8 hPa | 0 mm | - | 144 W/m² | - |
| 1777329413 | 14.44° C | 67% | 1015.9 hPa | 0 mm | - | 189 W/m² | - |
| 1777329110 | 14.44° C | 65% | 1015.8 hPa | 0 mm | - | 174 W/m² | - |
| 1777328807 | 14.44° C | 67% | 1015.9 hPa | 0 mm | - | 202 W/m² | - |
* Rain latest hour (hover to see other rain measurements)
** Current wind speed in m/s (hover to see current wind gust speed)